SCP
0 0 0 0 0 0 0 0 0 0 0 0 0 0 0 0 0 0 0 0 0 0 0 0 0 0 0 0 0 0 0 0 0 0 0 0 0 0 0 0 0 0 0
0 0 0 0 0 0 0 0 0 0 0 0 0 0 0 0 0 0 0 0 0 0 0 0 0 0 0 0 0 0 0 0 0 0 0 0 0 0 0 0 0 0 0
0 0 0 0 0 0 0 0 0 0 0 0 0 0 0 0 0 0 0 0 0 0 0 0 0 0 0 0 0 0 0 0 0 0 0 0 0 0 0 0 0 0 0
0 0 0 0 0 0 0 0 0 0 0 0 0 0 0 0 0 0 0 0 0 0 0 0 0 0 0 0 0 0 0 0 0 0 0 0 0 0 0 0 0 0 0
0 0 0 0 0 0 0 0 0 0 0 0 0 0 0 0 0 0 0 0 0 0 0 0 0 0 0 0 0 0 0 0 0 0 0 0 0 0 0 0 0 0 0
0 0 0 0 0 0 0 0 0 0 0 0 0 0 0 0 0 0 0 0 0 0 0 0 0 0 0 0 0 0 0 0 0 0 0 0 0 0 0 0 0 0 0
0 0 0 0 0 0 0 0 0 0 0 0 0 0 0 0 0 0 0 0 0 0 0 0 0 0 0 0 0 0 0 0 0 0 0 0 0 0 0 0 0 0 0
0 0 0 0 0 0 0 0 0 0 0 0 0 0 0 0 0 0 0 0 0 0 0 0 0 0 1 0 0 0 0 0 0 0 0 0 0 0 0 0 0 0 0
0 0 0 0 0 0 0 0 0 0 0 0 0 0 0 0 0 0 0 0 0 0 0 0 0 0 0 0 0 0 0 0 0 0 0 0 0 0 0 0 0 0 0
0 0 0 0 0 0 0 0 0 0 0 0 0 0 0 0 0 0 0 0 0 0 0 0 0 0 0 0 0 0 0 0 0 0 0 0 0 0 0 0 0 0 0
0 0 0 0 0 0 0 0 0 0 0 0 0 0 0 0 0 0 0 0 0 0 0 0 0 0 0 0 0 0 0 0 0 0 0 0 0 0 0 0 0 0 0
1 0 0 0 0 0 0 0 0 0 0 0 0 0 0 0 0 0 0 0 0 0 0 0 0 0 0 0 0 0 0 0 0 0 0 0 0 0 0 0 0 0 0
0 0 0 0 0 0 0 0 0 0 0 0 0 0 0 0 0 0 0 0 0 0 0 0 0 0 0 0 0 0 0 0 0 0 0 0 0 0 0 0 0 0 0
0 0 0 0 0 0 0 0 0 0 0 0 0 0 0 0 0 0 0 0 0 0 0 0 0 1 0 0 0 0 0 0 0 0 0 0 0 0 0 0 0 0 0
0 1 0 0 0 0 0 0 0 0 0 0 0 0 0 0 0 0 0 0 0 0 0 0 0 0 0 0 0 0 0 0 0 0 0 0 0 0 0 0 0 0 0
1 1 0 0 0 0 0 0 0 0 0 0 0 0 0 0 0 0 0 0 0 0 0 0 0 0 0 0 0 0 0 0 0 0 0 0 0 0 0 0 0 0 0
1 1 1 0 0 0 0 0 0 0 0 0 0 0 0 0 0 0 0 0 0 0 0 0 0 0 0 0 0 0 0 0 0 0 0 0 0 0 0 0 0 0 0
1 1 1 0 0 0 0 0 0 0 0 0 0 0 0 0 0 0 0 0 0 0 0 0 0 0 0 0 0 0 0 0 0 0 0 0 0 0 0 0 0 0 0
1 1 1 0 0 0 0 0 0 0 0 0 0 0 0 0 0 0 0 0 0 0 0 0 0 0 0 0 0 0 0 0 0 0 0 0 0 0 0 0 0 0 0
1 1 1 1 0 0 0 0 0 0 0 0 0 0 0 0 0 0 0 0 0 0 0 0 0 0 0 0 0 0 0 0 0 0 0 0 0 0 0 0 0 0 0
1 1 1 1 1 0 0 0 0 0 0 0 0 0 0 0 0 0 0 0 0 0 0 0 0 0 0 0 0 0 0 0 0 0 0 0 0 0 0 0 0 0 0
1 1 1 1 1 0 0 0 0 0 0 0 0 0 0 0 0 0 0 0 0 0 0 0 0 0 0 0 0 0 0 0 0 0 0 0 0 0 0 0 0 0 0
1 1 1 1 0 0 0 0 0 0 0 0 0 0 0 0 0 0 0 0 0 0 0 0 0 0 0 0 0 0 0 0 0 0 0 0 0 0 0 0 0 0 0
1 1 1 1 0 0 0 0 0 0 0 0 0 0 0 0 0 0 0 0 0 0 0 0 0 0 0 0 0 0 0 0 0 0 0 0 0 0 0 0 0 0 0
1 1 1 1 0 0 0 0 0 0 0 0 0 0 0 0 0 0 0 0 0 0 0 0 0 0 0 0 0 0 0 0 0 0 0 0 0 0 0 0 0 0 0
1 1 1 1 0 0 0 0 0 0 0 0 0 0 0 0 0 0 0 0 0 0 0 0 0 0 0 0 0 0 0 0 0 0 0 0 0 0 0 0 0 0 0
Wind_Speed
2 2 1 1 2 2 2 2 1 1 1 2 2 3 2 1 2 4 6 12 13 12 12 13 12 11 11 10 9 9 9 9 8 8 8 8 8 7 7 7 7 7 6
2 2 1 0 0 1 1 1 1 1 1 1 1 2 2 2 2 5 7 9 12 12 12 13 13 12 12 11 11 10 10 9 9 8 8 8 8 8 8 7 7 7 7
2 1 1 1 1 1 2 1 1 1 2 2 2 2 2 2 2 3 5 6 7 10 12 12 13 12 12 12 12 11 11 10 10 10 9 9 9 9 9 8 8 8 8
2 1 1 2 2 2 2 2 1 1 1 1 1 2 2 2 3 3 4 5 6 7 10 12 12 12 13 13 13 12 11 11 11 11 10 10 10 10 9 9 9 9 9
2 2 1 1 2 1 1 1 1 1 1 1 2 2 2 2 3 4 4 4 4 5 6 10 13 12 13 13 13 12 12 11 11 11 11 11 11 10 10 10 10 10 10
2 2 2 2 1 0 0 0 1 1 1 2 2 1 1 1 2 2 3 3 4 5 5 6 7 8 12 12 12 12 12 12 11 12 12 12 11 11 11 11 11 11 12
2 2 1 1 1 1 1 1 1 1 2 1 1 1 1 2 2 2 2 1 3 3 4 5 4 4 5 10 10 10 11 12 11 11 11 12 12 11 10 11 10 10 10
2 3 2 1 2 1 2 1 1 1 2 1 1 1 1 1 1 3 2 2 2 2 2 4 3 3 3 4 7 11 11 11 11 11 10 10 10 10 11 10 10 10 10
2 1 2 2 1 1 2 2 2 3 2 2 1 1 1 1 1 1 1 1 2 2 2 2 2 3 3 2 3 6 8 9 10 10 10 9 8 8 9 10 10 10 10
2 2 2 3 2 1 1 3 3 2 2 2 2 2 2 1 1 1 1 0 1 1 1 1 2 2 2 2 3 4 5 5 6 7 8 8 7 7 8 9 10 10 10
1 2 2 2 2 2 2 2 0 2 1 2 2 2 2 2 2 2 2 1 0 0 0 1 1 1 2 2 2 4 5 5 5 4 4 4 5 6 7 8 9 9 9
1 1 1 1 1 2 2 2 1 2 2 2 2 1 1 1 1 1 2 2 1 1 1 1 1 1 2 2 3 5 7 6 5 4 3 3 2 3 4 6 6 6 6
0 0 0 0 1 1 1 2 2 2 2 3 2 2 2 2 1 1 2 1 1 1 1 0 1 1 1 2 2 6 6 6 5 4 3 2 2 2 2 3 3 3 3
1 1 1 0 0 1 2 1 1 2 2 2 3 2 2 2 1 1 1 1 1 1 1 1 1 1 2 3 4 4 4 5 5 4 4 3 2 2 2 2 2 2 2
1 2 1 1 0 1 2 1 1 1 1 1 1 1 2 1 1 1 1 2 2 2 2 2 0 1 2 3 4 3 3 4 5 5 4 4 3 3 3 3 4 4 3
2 2 2 2 1 1 1 1 1 1 1 1 0 1 1 1 2 1 1 1 1 1 1 1 1 1 2 2 4 3 4 7 6 6 5 5 5 4 4 4 4 4 4
2 2 2 2 2 2 2 1 1 1 1 1 2 1 1 1 1 2 1 1 1 1 2 1 0 1 2 2 3 2 3 3 3 6 6 6 5 5 5 5 5 5 5
1 2 2 2 2 2 2 2 2 2 2 2 2 2 3 2 2 2 1 1 0 1 2 2 1 1 1 2 3 2 2 3 3 6 7 7 6 6 6 6 6 5 5
2 2 2 1 1 2 2 3 2 3 3 3 3 3 3 3 3 2 2 1 1 0 1 2 2 1 1 1 2 2 2 2 3 6 7 7 7 7 8 8 7 6 6
1 2 2 1 1 2 3 3 3 2 2 3 3 3 4 3 3 3 2 2 1 0 0 1 1 1 1 1 2 1 1 1 2 3 4 5 6 7 7 7 7 6 6
2 2 2 2 2 2 3 3 2 2 2 3 3 3 4 5 6 4 3 3 2 1 0 0 1 1 1 1 1 2 2 2 2 2 2 3 3 3 3 5 5 5 5
2 2 2 2 3 3 4 5 3 2 2 2 3 2 2 4 5 5 5 5 3 1 1 1 1 1 1 1 1 2 2 2 2 2 3 3 3 3 3 3 5 6 5
2 2 2 3 3 4 5 5 5 2 2 3 3 2 2 3 3 3 3 3 3 3 1 1 1 0 0 1 1 1 1 2 1 3 2 2 2 3 3 5 9 8 7
2 2 2 2 3 4 5 5 5 1 2 3 3 3 2 3 4 3 1 2 2 3 2 1 1 1 1 1 0 1 2 1 1 1 1 1 2 2 3 4 9 9 9
2 2 2 3 3 3 4 4 4 1 2 2 3 3 3 3 5 6 2 2 2 2 4 4 3 2 2 2 1 1 1 1 1 1 1 0 1 1 2 3 5 10 9
2 3 3 3 3 4 4 4 4 0 1 2 2 3 5 4 5 5 2 1 1 1 1 1 1 1 1 1 1 1 1 0 0 1 1 0 0 1 1 2 3 5 5
Wind_Direction
121 122 112 146 172 158 170 181 193 159 176 196 186 194 193 168 140 133 146 165 169 175 180 183 186 189 190 191 192 194 194 195 193 191 191 195 197 199 199 197 197 199 202
103 111 125 226 182 147 149 168 175 161 195 203 189 197 187 172 164 152 152 169 176 181 186 189 192 195 196 197 198 199 200 201 199 198 199 201 204 207 207 206 205 205 207
136 150 166 210 210 193 164 191 196 183 193 195 192 208 186 180 172 164 164 167 175 186 191 194 197 200 200 201 202 203 203 206 205 205 206 207 209 210 212 212 213 211 210
163 182 198 197 214 201 175 180 222 180 197 210 206 214 178 176 186 188 183 178 174 179 191 196 197 201 203 205 206 206 207 210 210 210 211 213 213 215 216 215 217 216 215
180 190 228 207 223 198 182 206 159 202 218 224 226 211 199 191 185 204 194 185 182 172 173 192 200 203 205 208 210 210 210 211 210 212 215 216 217 218 218 220 223 223 221
191 207 212 210 246 197 188 57 127 246 255 246 255 216 217 198 183 208 207 190 181 180 176 176 190 207 210 211 212 213 215 215 214 215 217 218 219 219 221 223 226 226 225
192 191 264 193 229 211 213 206 199 250 257 248 290 272 248 219 196 207 218 196 179 178 164 164 176 183 196 211 211 212 216 217 217 217 218 219 221 221 222 224 222 225 223
204 203 198 239 223 211 234 239 216 251 265 240 224 264 280 270 238 218 193 201 176 156 155 166 178 171 178 179 198 209 215 217 217 218 217 216 219 220 222 223 221 220 221
220 225 180 233 236 210 203 213 230 238 252 263 230 219 225 240 303 305 210 169 148 152 158 159 169 154 173 151 165 196 208 216 221 221 217 216 216 218 222 221 221 221 223
226 215 213 224 235 247 217 214 208 237 243 261 255 243 236 203 192 275 305 77 147 157 170 186 168 140 148 139 133 145 177 190 204 214 217 218 218 218 221 220 221 223 224
232 239 216 217 217 237 244 252 231 222 243 253 257 255 252 236 214 195 231 263 267 124 198 203 149 142 147 130 130 137 156 171 183 195 195 201 212 219 222 225 227 230 228
202 256 214 217 223 242 233 232 234 226 240 262 270 274 265 253 246 216 217 225 234 259 233 195 165 125 132 134 141 134 149 158 167 174 182 192 204 210 216 223 226 228 227
147 199 2 158 251 263 248 242 222 243 240 246 246 259 263 259 253 228 198 223 239 256 243 169 158 126 145 119 110 132 140 144 154 167 175 176 167 174 183 196 206 213 215
4 94 91 145 245 281 273 253 250 244 241 244 251 252 268 268 269 239 200 197 230 246 240 227 172 144 108 107 112 126 115 127 135 138 139 139 136 127 121 121 126 126 123
14 65 75 81 55 333 316 315 285 284 278 270 290 286 276 284 280 255 218 203 206 236 254 230 169 147 132 116 127 131 119 136 138 133 127 125 118 113 110 107 103 99 96
20 29 36 44 53 53 20 327 297 309 333 330 300 324 314 313 318 325 264 250 218 204 235 279 201 154 133 120 127 125 122 128 127 128 125 123 121 121 117 109 105 101 99
44 40 34 25 25 37 32 6 350 24 19 5 353 4 345 326 324 311 302 258 197 175 205 240 186 135 139 133 130 136 129 128 129 135 130 124 116 110 106 106 104 103 101
82 67 55 40 23 29 25 18 12 25 20 15 13 19 3 358 360 342 343 323 246 202 191 204 199 164 154 143 146 157 139 135 130 133 133 121 114 111 109 109 106 100 94
94 89 76 64 36 33 30 21 36 36 32 28 26 28 19 17 9 358 357 346 328 295 181 183 191 154 147 148 141 146 126 132 131 126 128 122 123 122 117 114 110 104 100
114 105 87 63 62 58 37 25 40 46 46 42 36 37 33 25 13 2 5 11 11 21 212 204 178 150 131 137 141 154 149 153 127 122 119 123 127 127 126 124 123 120 116
113 97 90 70 58 66 29 22 26 56 59 57 47 49 53 46 39 31 23 16 11 26 345 226 132 116 120 133 177 187 164 136 105 121 134 136 137 138 144 147 144 142 137
110 108 98 76 57 43 28 31 28 46 49 61 61 48 65 56 44 50 46 38 32 28 45 65 95 115 142 162 178 155 151 150 162 167 164 171 161 164 169 163 163 161 161
116 102 92 86 77 56 42 37 26 41 57 53 54 40 36 44 38 29 41 49 39 26 37 68 70 6 181 182 170 176 172 173 178 172 170 178 168 170 173 164 167 172 179
120 122 109 94 85 62 45 37 11 74 84 71 56 46 49 41 24 7 18 59 53 35 30 68 73 34 32 37 179 197 188 152 130 144 149 165 177 181 171 161 176 181 186
136 136 118 108 103 81 47 35 10 61 102 90 79 55 46 43 13 8 22 48 52 47 53 58 77 92 63 38 31 74 109 121 121 136 117 163 183 164 157 167 184 190 191
134 126 112 109 108 95 63 41 8 343 97 98 100 87 59 44 17 16 14 20 16 359 41 54 60 67 73 81 98 88 74 89 81 110 145 162 195 139 167 177 177 183 197